sat.trackr.live / text

‹ back to catalog

STARLINK-1039

NORAD 44744 · 2019-074AH

PAYLOAD ACTIVE UNKNOWN

§ Identity

Operator
Country
US
Launch date
2019-11-11
Launch site
AFETR
Launch vehicle
Mass (kg)
RCS (m²)

Purposes: comms

External: N2YO · Heavens-Above · Gunter

§ Orbital elements

Epoch: 2026-05-24T21:46:54.795360Z

Period
94.27 min
Inclination
53.0577°
Eccentricity
0.0002967
Mean motion
15.27524691 rev/d
Perigee alt
481.2 km
Apogee alt
485.3 km
Semi-major
6,861.4 km
B*
1.0031e-3
RAAN
223.1269°
Arg perigee
4.0729°
Mean anomaly
356.0293°
Rev number
35,998

§ Raw data

STARLINK-10391 44744U 19074AH  26144.90757865  .00027121  00000+0  10031-2 0  99972 44744  53.0577 223.1269 0002967   4.0729 356.0293 15.27524691359987

JSON: /api/v1/satellites/44744 · /tle

For live sub-satellite position, see the globe view (requires WebGL).

§ Visibility from observer

Set your observer location to see the next 7 days of passes ≥ 10°. The values pass through the URL so the page stays shareable.

No JS? Fill the form by hand. The geolocation button needs JavaScript.